K3TOW Weather Reports


Display with metric or nautical units.
time (UTC)temp
F
wind
direction
speed
MPH
gust
MPH
rain 1hr
in
rain 24hr
in
rain mn
in
humidity
%
barometer
mb
20260902161003 71 55 0.0 3.0 0.02 0.02 0.02 97 1016.9
20260902160005 71 0 0.0 0.0 0.02 0.02 0.02 97 1017.5
20260902155003 71 10 1.0 2.0 0.01 0.01 0.01 97 1017.3
20260902154003 71 10 0.0 2.0 0.01 0.01 0.01 97 1017.2
20260902153003 71 11 0.0 3.0 0.00 0.00 0.00 97 1017.3
20260902152003 71 11 1.0 4.0 0.00 0.00 0.00 97 1017.3
20260902151214 71 356 0.0 4.0 0.00 0.00 0.00 97 1017.4
20260902150003 71 340 0.0 4.0 0.00 0.00 0.00 97 1017.2
20260902145003 71 355 0.0 2.0 0.00 0.00 0.00 97 1017.2
20260902144003 71 355 0.0 1.0 0.00 0.00 0.00 97 1017.2
20260902143003 72 355 0.0 1.0 0.00 0.00 0.00 97 1017.4
20260902142214 72 355 0.0 1.0 0.00 0.00 0.00 97 1017.4
20260902141003 72 355 0.0 2.0 0.00 0.00 0.00 97 1017.4
20260902140003 72 355 0.0 1.0 0.00 0.00 0.00 97 1017.3
20260902135003 72 355 0.0 1.0 0.00 0.00 0.00 97 1017.1
20260902134003 72 355 0.0 1.0 0.00 0.00 0.00 98 1017.2
20260902133003 72 355 0.0 1.0 0.00 0.00 0.00 98 1017.0
20260902132003 72 355 1.0 3.0 0.00 0.00 0.00 98 1016.9
20260902131003 72 355 0.0 2.0 0.00 0.00 0.00 98 1016.9
20260902130213 72 355 0.0 2.0 0.00 0.00 0.00 98 1016.6
20260902125003 71 342 0.0 3.0 0.00 0.00 0.00 98 1016.5
20260902124003 71 355 0.0 4.0 0.00 0.00 0.00 98 1016.4